{"data":{"norad_id":65315,"epoch":"2026-05-25T02:54:44.168256Z","epoch_age_seconds":57811,"freshness":"FRESH","line1":"1 65315U 25188A   26145.12134454  .00007807  00000+0  19255-3 0  9992","line2":"2 65315  97.1970 221.6194 0002589 106.0556 254.0976 15.40806510 41768","mean_motion":15.4080651,"eccentricity":0.0002589,"inclination_deg":97.197,"raan_deg":221.6194,"arg_perigee_deg":106.0556,"mean_anomaly_deg":254.0976,"bstar":0.00019255,"rev_number":4176,"period_min":93.45754905981,"perigee_km":441.96156922205,"apogee_km":445.4939307896,"semimajor_km":6821.8647500058,"source":"CELESTRAK","updated_at":"2026-05-25T13:38:13.344057Z"}}